Theta_e
292 293 293 293 294 294 294 294 294 295 294 294 295 293 291 291 290 290 288 288 288 287 287 288 287 287 286 285 285 284 284 284 286 280 281 280 279 279 279 279 279 279 280
290 291 292 293 292 292 293 293 293 293 294 293 293 292 290 290 290 289 288 287 286 285 286 286 286 285 284 284 284 283 283 283 283 282 280 279 279 280 280 280 280 280 280
289 290 290 291 291 290 290 291 292 292 292 292 292 291 290 289 288 288 287 286 286 286 286 285 284 284 283 283 283 282 282 282 281 280 280 279 279 280 280 280 280 280 281
288 289 289 289 290 290 290 290 290 291 290 290 290 290 290 289 288 287 286 285 285 285 285 285 284 284 283 282 282 282 281 279 279 278 277 277 277 278 278 278 279 278 278
288 288 288 288 288 288 290 289 289 289 289 289 289 288 288 288 288 286 286 285 284 283 283 283 284 284 284 284 283 280 279 278 277 277 277 277 277 278 278 278 278 277 277
287 287 288 287 287 286 288 289 289 288 288 288 287 287 287 286 286 286 286 284 283 283 282 282 282 282 282 283 283 283 283 279 277 277 277 277 278 278 278 278 277 278 279
285 286 287 286 285 285 286 287 288 288 287 287 286 286 286 286 286 285 285 284 283 283 282 281 280 280 281 281 281 280 280 279 279 278 277 278 279 278 278 277 278 278 278
283 283 283 281 282 284 284 284 285 286 286 286 285 285 285 285 285 286 286 284 283 282 282 281 280 280 280 280 280 280 279 279 278 278 278 279 279 277 277 278 278 277 275
281 280 280 279 281 283 283 282 283 284 284 284 285 285 284 284 285 285 286 285 282 282 281 280 280 279 280 280 280 280 279 278 279 280 280 279 278 278 279 278 277 274 273
279 278 278 277 280 278 279 281 281 282 283 283 283 283 284 284 284 284 285 286 282 281 280 279 279 279 279 280 279 280 280 279 279 279 278 278 280 278 277 275 274 272 272
277 276 275 275 276 276 277 279 281 281 282 282 282 282 282 282 282 283 285 286 283 281 279 278 278 279 279 281 279 279 279 278 278 277 277 278 276 275 274 273 273 273 272
275 274 273 272 272 273 274 276 279 280 280 281 281 281 281 281 281 282 284 286 283 281 279 278 278 279 280 281 280 277 278 277 277 277 276 275 273 273 272 272 272 271 272
272 271 271 270 271 271 272 274 276 279 279 280 280 280 280 278 279 281 282 285 283 280 279 278 278 280 281 282 281 278 278 278 276 275 274 274 272 272 271 271 271 270 270
270 269 269 269 269 269 270 272 275 279 280 279 280 279 280 278 278 278 280 282 284 281 279 278 279 280 281 281 282 281 278 278 277 275 274 273 271 270 270 270 270 269 269
267 267 267 267 267 268 269 271 273 275 279 279 280 280 280 279 278 278 279 281 283 280 278 278 279 280 280 280 281 278 278 277 275 274 272 270 270 269 270 269 269 269 268
265 265 265 265 266 266 267 269 270 273 277 280 281 281 280 280 280 279 280 281 283 280 278 278 279 280 279 278 275 273 273 274 272 272 270 269 269 269 269 268 268 268 268
263 263 263 263 264 265 266 268 269 270 273 278 280 281 283 282 280 280 281 282 284 280 278 278 279 279 276 275 273 272 271 271 271 270 269 268 268 268 267 267 267 267 267
261 262 262 263 263 264 266 267 268 270 272 276 278 279 281 283 282 281 280 282 284 281 278 278 277 276 273 273 272 271 270 269 269 268 268 267 267 267 266 266 266 266 266
261 261 262 262 263 264 265 266 267 268 270 273 277 278 279 283 283 281 281 282 283 281 277 276 274 274 273 272 271 270 269 268 267 267 267 267 267 267 266 266 265 265 265
262 262 263 263 264 264 265 265 267 268 270 274 276 277 278 280 282 280 281 281 282 279 274 274 273 272 271 270 269 268 267 267 267 266 266 266 266 266 266 266 265 265 265
262 263 263 263 264 264 265 266 267 270 272 275 275 276 277 279 281 279 280 280 275 274 272 271 270 269 268 269 268 268 268 267 266 266 266 266 266 266 266 266 265 265 264
263 264 264 265 266 267 267 268 269 271 274 274 274 275 277 280 279 277 273 271 270 270 272 271 269 269 268 269 269 268 267 267 266 266 266 266 267 267 266 266 266 265 264
264 264 265 267 269 270 272 272 273 273 273 274 274 272 272 269 269 268 267 268 268 269 270 271 270 268 269 269 268 268 267 267 267 266 266 266 267 267 266 266 266 265 264
263 264 265 266 267 268 268 269 270 269 269 268 267 266 266 265 265 265 265 266 267 268 269 269 269 268 267 267 266 266 266 266 266 266 266 266 267 267 266 266 266 266 265
262 263 264 264 265 266 266 266 265 265 265 264 264 263 263 263 263 263 263 265 266 267 267 267 267 266 266 266 266 266 265 265 265 266 266 266 267 267 267 266 266 266 265
261 261 262 262 263 263 263 264 263 263 263 263 262 262 262 261 261 262 263 265 266 266 266 265 265 265 265 265 264 264 265 265 265 266 266 266 266 267 267 267 267 266 265
Wind_Speed
36 36 29 25 24 27 32 36 38 39 39 41 42 45 50 52 53 53 49 48 51 48 47 45 42 38 36 32 29 27 24 20 8 7 13 15 14 12 9 9 8 9 11
32 33 35 35 28 26 31 35 37 38 41 42 43 44 45 49 53 56 52 51 50 46 48 46 45 42 39 36 35 33 30 27 18 11 14 13 11 11 11 9 8 10 12
34 33 33 32 32 30 30 33 35 35 39 42 44 45 45 47 48 52 51 48 52 53 51 49 46 45 42 41 39 35 32 29 26 16 14 13 11 11 11 10 11 12 15
33 29 28 31 33 32 29 29 33 32 34 38 43 45 47 47 49 48 47 46 48 48 51 51 49 52 49 46 42 39 36 30 26 21 14 12 13 11 11 8 10 9 15
29 27 29 28 31 33 33 30 28 30 33 35 37 41 43 46 48 47 46 43 41 41 45 49 51 54 54 51 47 43 39 33 27 20 15 11 10 10 11 6 9 12 17
25 25 28 29 32 33 35 35 28 26 28 31 36 37 39 43 39 43 47 44 43 41 40 42 44 50 52 48 45 43 44 44 32 23 20 17 17 15 13 14 12 7 6
23 23 25 27 30 31 33 35 33 29 26 29 32 33 37 41 36 39 43 43 42 43 41 39 37 44 49 42 34 34 34 33 33 37 27 22 19 21 17 16 14 11 12
26 27 27 29 28 29 33 33 33 29 26 26 30 32 34 36 33 37 40 41 40 42 44 46 46 44 51 46 40 34 34 34 30 30 30 23 20 15 16 11 10 10 13
19 21 27 33 29 30 30 32 33 31 26 27 26 27 30 33 32 34 38 41 35 38 40 41 44 43 48 41 40 34 30 30 27 23 23 19 18 15 13 14 14 6 3
22 25 26 30 28 32 31 32 32 32 30 27 27 28 30 32 30 30 38 37 32 32 32 36 41 44 43 44 42 37 31 30 34 28 22 18 19 19 17 14 12 8 4
27 29 28 27 29 31 32 33 31 29 28 28 28 29 29 29 30 27 37 39 34 31 29 31 36 38 41 44 37 37 34 29 28 27 23 25 23 21 18 14 11 9 9
27 28 31 31 31 29 30 33 31 28 27 26 23 23 27 26 29 30 37 43 35 32 30 27 30 38 40 43 38 33 28 26 29 24 23 18 18 18 15 12 9 8 9
27 32 32 33 33 30 28 31 29 26 23 23 20 20 22 20 26 30 33 39 35 29 27 29 32 40 40 42 38 30 32 28 28 23 17 16 15 13 11 9 7 7 8
31 35 34 33 33 33 29 27 27 25 23 22 21 21 20 20 23 23 26 30 36 31 25 26 31 37 35 34 36 33 32 33 32 26 21 19 15 13 11 7 5 4 6
32 36 36 33 31 31 30 29 28 31 28 26 26 24 21 20 25 26 28 27 30 30 28 26 28 33 33 31 31 31 35 36 33 28 20 18 14 11 8 6 4 3 5
36 35 32 31 30 29 29 33 31 34 35 38 37 34 27 30 23 27 26 32 29 35 31 29 27 31 29 30 26 24 27 29 25 23 19 17 14 10 8 5 5 5 6
34 35 32 31 29 28 26 25 21 31 29 33 34 33 34 29 26 25 28 33 32 39 30 30 29 28 27 28 28 27 22 25 28 24 23 19 14 11 8 6 4 5 8
34 34 34 32 30 29 27 27 26 23 16 21 23 28 30 32 28 25 28 30 29 39 29 28 27 29 27 28 28 28 27 26 24 20 18 17 16 11 7 6 4 6 9
32 31 31 31 30 31 30 29 28 27 25 26 21 22 25 27 27 25 26 28 22 29 24 24 28 30 30 30 28 27 30 29 27 24 21 19 15 11 8 5 5 8 10
31 32 33 31 29 28 28 27 25 24 23 24 17 18 17 19 20 21 23 23 19 23 25 24 24 24 24 27 29 30 27 28 26 22 18 15 12 10 8 6 6 6 10
29 29 30 30 28 28 27 25 25 22 22 16 16 17 19 18 16 18 17 19 20 26 26 29 28 26 28 31 33 32 30 27 23 20 17 14 11 9 7 6 6 9 12
27 26 26 26 27 26 26 24 24 22 17 13 12 16 19 18 14 14 15 21 24 29 35 34 31 29 30 32 31 29 27 26 23 20 16 13 10 9 7 6 8 11 11
23 23 23 23 21 19 15 15 14 10 10 10 9 2 10 16 21 21 24 26 28 30 30 28 27 29 28 25 25 25 24 21 18 16 14 12 9 9 7 9 11 14 14
21 20 18 17 16 14 13 11 10 9 10 11 12 14 15 16 22 22 24 26 28 28 29 30 30 29 26 23 21 19 17 15 14 12 10 9 9 8 10 13 15 17 17
20 19 18 17 17 16 14 15 15 15 16 15 15 17 18 21 24 26 29 33 35 35 32 29 26 23 21 19 17 15 13 13 11 9 8 9 10 11 14 17 20 19 20
20 20 20 19 19 18 17 15 16 16 16 16 17 18 20 22 24 29 32 33 32 30 27 23 20 17 15 13 11 11 11 12 10 8 8 10 12 14 16 19 20 22 23
Wind_Direction
8 6 354 332 301 280 265 260 253 248 245 238 234 228 222 220 219 219 218 218 218 216 215 216 216 213 210 207 207 206 205 205 189 176 194 208 224 244 261 297 318 323 328
1 3 5 3 342 308 283 276 265 254 248 243 238 234 225 221 219 217 213 216 216 212 213 212 213 212 211 208 206 205 203 204 200 192 205 215 229 248 276 297 309 322 320
354 356 360 1 356 338 311 293 276 264 255 249 242 234 228 225 220 219 215 214 215 214 214 211 209 209 206 205 206 205 204 203 205 201 215 230 244 269 286 293 305 316 317
347 350 350 350 352 351 340 311 289 278 262 253 248 242 234 228 225 222 215 214 217 216 212 213 210 211 208 204 201 203 202 196 200 203 208 226 245 256 267 284 298 297 294
340 341 342 341 342 345 347 341 317 288 275 261 252 246 239 231 225 220 217 214 215 215 215 213 213 216 217 215 204 199 199 192 188 190 200 203 207 206 217 224 251 277 281
332 331 335 338 340 337 337 337 335 311 288 271 254 245 242 237 229 219 215 210 212 212 213 211 211 216 216 215 213 214 210 194 187 185 198 203 209 206 206 217 228 239 261
333 333 333 337 331 330 329 328 331 327 305 283 263 248 242 242 234 223 213 213 209 209 210 209 204 212 213 207 201 205 208 207 214 205 193 199 203 203 202 214 216 223 249
328 330 331 334 328 325 325 323 322 317 305 278 263 253 248 246 238 228 218 214 213 211 209 208 204 204 209 201 194 194 200 201 202 209 217 220 218 203 215 220 227 248 274
316 319 323 329 322 323 318 313 313 308 298 281 268 261 252 250 245 229 218 219 214 213 210 208 205 202 202 191 190 188 194 200 202 206 212 218 224 216 230 225 235 231 262
311 313 313 319 308 310 309 303 303 305 300 286 275 265 258 256 248 236 222 219 218 214 211 204 203 202 193 189 190 186 188 191 194 196 208 207 220 223 222 235 238 211 192
302 307 305 306 301 303 303 303 296 298 294 283 275 271 260 253 252 240 230 221 214 212 207 198 200 200 193 191 190 188 192 190 191 198 199 205 220 222 228 222 217 209 201
300 300 301 301 300 298 296 298 295 285 283 278 271 268 261 252 250 241 235 222 215 205 205 202 197 197 192 190 189 191 185 184 183 188 196 204 218 224 219 215 210 218 233
297 299 299 299 297 295 291 292 292 283 269 269 260 257 258 244 234 239 241 232 212 201 205 202 194 194 191 188 187 182 182 182 182 186 188 205 216 219 217 222 229 248 264
296 296 297 294 293 293 288 283 279 275 269 262 258 252 252 243 234 225 236 237 209 199 194 192 190 185 186 185 182 184 181 187 187 187 193 206 207 212 219 223 244 283 292
293 293 293 290 287 286 282 279 277 274 266 261 259 253 246 238 237 224 221 223 196 187 173 180 186 181 182 179 180 174 179 184 183 192 188 194 198 207 214 221 247 268 259
291 291 289 289 287 284 284 287 279 274 275 264 260 258 254 252 253 233 221 216 205 181 173 173 186 187 183 172 162 153 165 177 181 182 189 192 192 195 207 220 243 262 274
286 288 288 285 283 281 280 279 287 291 281 270 260 263 253 249 239 233 224 216 203 181 185 183 183 183 170 168 165 165 166 174 180 183 186 185 186 192 195 221 259 283 292
285 283 282 280 278 276 274 274 275 278 283 272 258 261 262 243 228 221 222 217 205 190 189 186 176 167 162 164 167 167 161 166 175 184 183 181 184 188 193 220 267 289 299
285 281 278 277 274 273 273 272 273 272 271 277 262 260 263 242 232 207 215 220 205 189 183 176 168 171 173 170 171 167 166 169 176 183 185 184 180 187 202 229 275 292 295
285 280 277 276 276 273 270 267 264 263 265 263 249 252 246 242 225 190 209 213 214 178 163 164 163 169 166 161 160 164 163 172 178 181 185 186 186 190 197 233 268 281 291
287 284 280 277 272 268 264 261 261 261 260 248 247 244 243 233 202 185 199 199 162 153 150 147 158 160 163 169 173 173 172 173 177 180 182 188 194 206 218 243 279 298 301
291 287 286 282 280 271 261 253 257 258 253 250 252 246 250 235 179 158 136 128 135 144 162 170 170 172 178 173 168 170 174 177 179 184 186 191 203 218 239 272 298 302 290
309 306 304 302 300 297 298 252 251 245 245 250 248 147 117 112 124 125 132 142 149 155 163 167 165 158 158 162 171 178 177 178 182 186 191 199 218 229 252 280 290 297 297
329 329 331 336 346 0 10 20 34 60 88 86 86 86 96 105 118 130 138 140 142 141 143 145 148 148 152 160 167 173 174 177 183 191 203 220 240 252 270 280 289 293 275
352 352 356 359 3 9 21 33 42 49 57 64 72 83 96 107 112 122 129 132 131 130 131 135 141 148 155 162 171 179 184 190 198 206 221 240 253 262 276 284 286 287 282
8 13 13 14 16 20 26 32 40 50 57 65 75 84 93 99 107 117 124 125 124 124 129 136 142 146 154 164 175 189 198 204 209 220 241 249 260 272 281 283 290 285 290